Theta_e
296 297 298 300 301 300 296 292 285 295 296 286 285 285 286 290 285 287 285 287 287 286 284 279 278 279 280 284 283 279 280 278 273 275 276 278 278 276 273 268 267 266 264 269
295 296 297 298 300 300 290 286 288 295 293 282 284 285 286 287 284 284 285 286 287 285 283 283 280 280 284 284 281 280 281 274 270 275 276 277 276 277 275 268 267 266 264 272
296 295 295 297 299 300 292 286 281 285 287 287 283 285 283 281 287 286 288 285 285 282 281 283 281 280 283 284 283 286 283 275 274 277 277 275 273 275 275 270 264 265 269 272
296 296 295 296 298 298 292 285 281 284 279 282 284 286 283 283 278 286 286 282 284 283 279 279 279 281 281 283 286 282 279 272 272 273 274 274 275 275 274 271 269 271 279 270
296 296 295 296 296 297 288 281 282 284 282 281 283 285 285 285 281 283 283 282 283 284 280 283 279 280 280 280 281 279 279 272 275 272 274 274 273 275 276 276 274 271 274 274
296 295 296 295 296 295 285 288 286 282 278 279 280 282 284 284 285 284 285 285 284 282 284 285 284 284 283 283 281 278 277 273 271 269 272 272 272 276 275 274 273 274 271 278
295 295 296 295 295 294 287 286 285 280 274 278 279 282 285 286 286 286 284 286 284 283 287 287 285 282 282 281 280 281 275 273 269 267 268 267 281 277 278 277 277 276 275 276
295 295 295 295 295 295 290 288 285 280 275 277 278 279 278 286 288 285 284 285 285 289 285 280 277 275 277 273 276 278 278 275 264 267 262 274 282 274 275 274 279 279 278 281
294 295 294 295 294 294 291 288 289 284 277 275 279 278 279 280 285 281 281 283 288 285 283 279 274 272 274 268 268 278 277 275 269 259 264 266 279 276 277 277 275 279 280 280
293 293 294 294 294 293 290 289 290 285 279 279 281 277 277 281 286 283 280 281 281 284 280 276 273 271 270 270 268 270 270 265 263 257 261 269 280 278 278 274 281 278 279 279
293 293 293 293 294 293 290 288 290 285 278 277 283 285 282 282 282 281 281 281 279 279 279 279 276 270 270 269 271 271 270 268 262 258 260 267 278 277 277 282 280 279 278 278
293 293 294 294 294 294 293 285 292 291 283 280 283 286 287 286 286 283 283 279 277 281 275 274 271 273 266 269 269 274 272 274 270 271 273 280 279 280 281 281 280 281 281 282
293 293 294 294 294 294 292 287 289 287 283 280 279 279 286 289 289 292 281 279 282 281 282 277 274 269 273 267 269 271 273 276 273 274 281 279 281 282 282 282 282 282 282 282
293 293 293 294 294 294 293 287 290 287 281 274 274 285 284 289 290 291 290 286 283 281 279 274 278 272 277 273 275 274 275 276 273 274 279 281 283 282 283 283 283 282 282 282
292 292 291 292 293 293 291 289 289 289 280 275 273 280 284 288 289 289 291 288 284 281 280 279 277 276 276 271 271 269 275 276 276 278 282 284 285 285 284 282 283 284 282 281
292 292 291 292 293 292 287 281 287 290 288 278 269 278 280 285 287 288 286 285 285 284 278 276 274 278 280 274 269 277 278 279 281 285 282 283 284 282 282 281 282 283 280 281
291 292 292 291 291 288 282 275 283 291 289 280 270 274 281 284 285 285 284 285 285 285 283 283 276 276 278 279 275 281 281 281 282 281 279 282 283 283 285 281 281 277 276 275
291 292 291 291 293 290 285 287 291 290 284 281 268 273 273 283 280 279 284 282 283 283 283 280 279 274 273 276 275 281 286 286 283 283 281 287 286 278 284 276 273 275 278 278
291 290 291 285 283 280 278 290 291 289 283 274 269 272 272 281 279 279 280 283 280 280 279 279 280 273 277 277 278 279 283 281 285 274 274 273 276 282 283 275 269 275 280 280
289 280 271 267 273 289 289 285 280 281 282 272 265 272 274 279 278 276 273 274 275 275 276 276 277 272 270 273 278 284 280 283 277 275 280 270 277 278 281 282 281 281 281 282
273 266 267 275 287 279 276 276 276 278 275 270 266 273 274 279 275 275 277 278 277 275 274 272 271 271 273 278 281 286 279 283 285 279 285 281 286 285 285 285 282 277 279 280
275 275 278 276 271 269 270 271 274 275 272 271 269 273 276 277 278 277 277 276 275 274 271 268 271 272 277 275 281 284 279 275 277 272 278 274 273 274 278 279 280 279 279 276
271 268 265 266 267 266 265 267 270 272 273 272 275 275 275 275 277 275 275 274 271 266 269 267 269 272 270 273 279 275 263 263 261 263 262 262 262 261 262 268 270 273 274 274
265 261 260 261 263 266 267 269 271 274 273 274 276 274 275 273 271 275 270 263 264 265 262 267 270 273 276 266 262 266 265 261 260 260 259 259 259 261 259 261 263 265 268 271
263 264 259 257 262 265 268 270 270 276 276 278 277 274 275 266 272 267 262 266 263 264 267 270 273 266 264 264 263 261 262 260 261 257 258 260 259 259 261 260 260 261 263 265
262 261 264 258 262 267 269 264 270 271 278 277 280 274 274 270 270 271 265 265 268 270 267 266 263 263 261 261 259 258 257 256 256 256 255 256 259 259 260 259 259 260 257 260
260 261 256 260 261 266 265 261 270 274 270 268 273 273 271 269 270 270 270 268 271 267 265 259 259 261 260 257 257 257 256 256 256 255 256 256 257 255 260 261 261 260 260 257
Wind_Speed
22 23 22 20 19 16 7 3 6 2 1 3 2 8 7 5 5 1 2 4 4 7 9 4 5 4 2 2 6 7 4 5 4 3 0 1 2 5 5 6 5 1 3 13
20 22 22 21 20 14 2 4 4 1 2 10 13 2 3 4 6 6 7 7 4 2 6 3 2 2 2 2 3 6 5 1 3 4 2 3 4 5 4 5 3 7 7 11
24 18 23 23 22 19 3 3 5 3 3 1 5 18 11 5 5 4 3 5 6 4 3 2 3 3 1 1 1 4 4 2 6 7 4 5 6 6 7 6 5 5 12 11
21 22 20 19 20 17 5 5 5 3 5 9 8 6 9 16 9 5 5 2 5 7 5 4 6 3 1 2 3 3 3 4 2 3 4 2 3 5 12 11 8 9 13 11
24 23 23 19 19 16 6 5 4 4 6 4 17 18 12 21 4 11 6 4 14 11 8 10 10 9 5 5 1 4 1 2 2 5 1 5 6 10 13 18 7 14 14 23
26 27 26 19 20 8 3 3 1 3 6 9 9 18 24 18 8 8 6 15 7 11 11 7 3 3 5 3 7 5 5 5 3 6 3 4 7 12 18 6 6 10 10 19
27 28 29 24 21 14 4 1 1 4 7 8 11 10 16 23 19 20 6 5 7 4 17 12 7 9 7 5 3 2 5 5 2 4 2 3 6 2 7 11 7 17 9 13
25 28 26 24 23 21 8 4 4 5 7 6 14 13 14 18 18 12 8 4 5 16 7 4 4 3 2 2 2 1 1 4 2 3 4 8 10 4 8 9 11 22 24 18
21 24 25 25 23 21 11 5 5 5 5 11 12 13 16 14 13 5 3 3 8 5 3 4 7 8 5 3 3 3 5 5 4 3 4 7 7 3 4 4 7 7 17 15
13 16 21 22 24 25 13 6 10 5 7 5 5 6 7 10 6 4 5 7 2 1 4 3 5 6 2 8 12 8 4 2 6 2 3 11 11 5 5 6 8 5 10 7
19 20 23 23 23 24 15 6 9 7 4 4 8 6 7 9 8 6 7 6 2 3 6 6 5 4 7 4 4 8 10 10 5 4 2 13 8 6 9 5 2 2 4 5
26 27 27 26 26 29 23 11 7 10 6 3 5 9 16 15 17 6 9 4 8 7 4 1 4 3 1 6 5 2 6 9 10 12 13 3 8 6 7 2 3 3 3 5
27 31 33 33 32 31 25 11 4 3 3 3 3 10 15 14 14 11 5 4 3 4 4 6 4 4 5 6 7 5 5 5 4 3 7 19 16 14 10 6 10 6 8 6
26 26 25 26 31 30 27 12 5 4 1 2 8 1 5 9 13 14 12 5 2 3 3 3 4 4 3 4 3 4 4 11 6 8 8 12 14 12 13 11 11 10 9 9
21 18 9 15 18 24 13 4 7 7 4 2 3 7 5 5 13 18 16 13 4 2 2 2 4 3 5 1 2 3 6 9 8 9 10 6 5 4 4 8 9 11 9 7
13 11 6 14 15 16 4 3 4 9 6 2 3 5 4 5 11 18 15 10 5 3 4 5 1 0 4 4 5 7 10 8 8 7 2 6 7 5 4 6 10 10 7 9
13 12 12 6 5 3 4 6 3 15 8 4 3 5 3 3 5 5 3 5 3 4 3 3 4 2 5 2 6 6 9 12 12 10 4 16 7 9 6 9 8 4 6 7
13 14 13 5 17 11 6 8 13 6 3 4 4 4 4 5 3 4 3 5 3 2 2 2 4 2 2 6 6 8 12 12 11 12 14 22 11 5 17 4 3 6 11 9
11 7 8 4 1 3 5 13 15 7 5 4 5 11 6 4 1 3 1 2 3 1 2 3 5 3 8 7 9 8 14 10 15 3 5 3 7 17 14 6 4 10 14 13
5 6 5 4 4 8 9 3 5 8 7 3 4 3 6 3 4 3 4 1 4 4 3 3 4 6 3 6 9 16 7 14 5 1 10 2 10 10 15 15 12 13 14 14
4 2 3 4 7 2 0 6 3 3 4 3 3 3 5 4 4 4 2 4 3 4 3 5 3 6 6 11 16 19 9 12 15 9 14 7 16 15 14 16 12 9 12 13
6 4 2 4 4 2 1 5 5 2 6 4 7 5 5 3 3 4 1 4 3 5 4 3 5 6 10 7 13 19 5 7 10 5 12 5 5 6 10 12 13 9 9 6
4 5 5 4 3 3 1 5 4 2 1 5 5 5 4 1 2 4 3 4 2 1 2 6 6 5 5 10 10 7 3 1 2 5 4 5 5 4 3 10 8 10 11 7
5 4 4 3 5 2 4 5 6 1 2 4 4 4 3 2 4 2 5 1 3 3 1 8 5 8 7 1 1 1 1 4 4 5 4 5 5 5 5 7 8 8 10 9
3 4 2 3 4 5 5 3 6 4 1 2 3 3 2 2 5 3 6 5 3 7 7 6 4 4 3 1 1 1 3 4 5 3 4 7 5 6 7 4 6 6 7 7
4 2 0 3 3 5 4 2 4 3 4 3 3 2 3 2 5 3 2 7 6 6 5 3 4 3 3 3 2 2 2 1 3 4 3 4 5 6 7 8 5 7 5 6
4 4 1 3 1 5 4 2 4 2 3 1 2 4 3 2 3 2 5 6 4 3 3 2 1 1 2 4 3 3 3 4 4 3 5 4 6 3 5 9 9 7 7 4
Wind_Direction
322 307 313 314 305 299 342 254 260 151 192 167 200 220 185 175 165 158 167 129 170 183 171 195 246 231 222 155 165 162 184 129 161 194 16 192 169 180 157 123 229 158 140 270
313 318 310 309 306 278 80 273 283 208 237 221 218 173 239 198 151 193 185 165 158 152 166 221 228 271 358 170 160 152 191 278 71 350 12 2 220 185 121 115 89 198 138 262
308 306 306 302 300 284 128 274 271 192 228 312 228 220 225 219 207 185 181 125 103 126 176 243 183 258 47 352 157 103 101 113 182 190 167 128 190 181 170 135 130 183 230 282
298 298 296 291 295 302 183 192 254 241 214 224 225 204 185 201 194 210 163 123 198 166 169 165 213 209 114 351 174 69 136 209 185 246 220 195 218 180 177 203 189 187 268 222
279 281 288 281 274 259 271 192 219 324 314 289 202 222 217 214 192 162 198 181 187 192 173 191 185 155 179 197 107 156 81 224 141 291 298 183 257 214 197 218 219 260 265 284
278 273 272 269 270 256 257 234 211 189 278 306 280 218 225 234 148 222 176 198 142 191 220 102 48 93 118 181 157 166 156 142 119 263 358 313 284 225 196 185 192 193 198 235
273 267 262 263 255 239 187 266 221 193 254 258 259 310 232 223 208 221 204 173 169 147 111 105 63 50 55 73 43 114 147 121 84 239 6 283 242 179 175 194 219 213 262 254
274 262 253 263 267 264 228 182 224 189 237 246 283 292 322 239 218 209 163 174 165 154 91 105 110 17 34 345 27 40 70 126 99 163 202 305 296 178 152 170 276 207 221 248
286 264 254 266 261 263 267 231 191 243 210 217 235 264 285 282 194 137 115 31 150 82 122 142 173 201 166 217 19 84 99 69 120 90 160 228 240 158 175 169 292 190 192 230
280 278 267 264 270 269 263 245 202 227 233 207 172 205 244 311 227 150 129 147 179 330 135 158 163 212 182 168 166 161 130 39 172 154 245 286 249 144 160 95 239 154 183 205
267 258 263 263 269 266 265 256 203 213 257 217 185 178 227 248 239 204 141 118 237 139 194 176 188 152 208 120 155 174 163 151 180 90 93 269 140 77 185 223 310 155 196 204
273 274 272 264 252 261 254 253 217 200 228 234 206 239 239 239 250 323 209 165 154 168 134 172 99 146 134 151 214 133 206 184 176 190 208 242 212 220 228 231 255 283 207 205
280 284 280 265 249 246 244 244 183 213 225 224 227 247 239 216 220 197 208 291 166 202 192 155 166 177 128 164 229 162 230 174 196 122 232 235 238 256 256 230 240 242 240 237
289 290 288 275 237 243 237 231 186 203 275 227 268 335 236 230 213 197 208 271 305 107 83 120 149 168 173 196 169 174 187 140 173 263 285 280 263 229 239 243 242 250 251 232
292 281 297 292 253 235 225 166 183 187 179 271 259 304 247 186 199 213 207 212 189 170 126 128 201 132 122 12 66 239 193 175 179 222 217 204 237 213 195 215 239 247 235 261
272 277 279 281 258 216 87 202 216 195 181 193 272 268 243 175 194 206 189 190 188 181 168 206 191 291 119 170 209 247 205 209 215 249 259 240 279 306 209 230 242 249 231 233
253 258 266 237 191 141 183 184 164 187 164 201 265 271 228 249 171 162 149 159 201 169 201 184 141 195 130 188 215 219 211 234 250 246 302 288 235 259 255 228 254 246 253 247
246 261 287 271 206 190 229 251 269 235 200 182 192 261 350 190 184 133 205 150 201 181 146 110 142 91 107 243 235 223 223 232 252 238 209 245 285 300 277 210 191 239 258 261
244 278 332 15 123 193 233 195 198 187 210 210 160 199 233 159 188 121 201 160 163 16 165 176 151 155 219 204 193 212 219 189 232 249 234 267 237 259 263 261 236 239 259 260
83 57 52 310 227 295 307 274 211 172 180 173 172 73 182 216 185 149 107 143 155 178 189 122 209 240 268 234 221 242 165 212 176 222 264 236 256 245 264 256 253 249 254 264
48 73 216 247 310 45 272 266 239 139 134 131 168 208 125 207 188 137 230 155 142 168 188 157 232 264 235 208 226 249 177 209 234 228 264 227 262 279 285 281 262 240 249 251
176 181 313 3 25 19 51 271 270 176 180 183 137 184 195 189 202 122 165 131 181 179 153 124 250 242 233 193 226 249 200 199 247 235 268 270 257 257 273 279 283 269 263 253
39 46 28 48 286 30 277 294 263 229 170 173 152 143 164 142 71 87 114 126 144 22 47 223 231 258 268 227 234 269 112 214 350 297 301 315 295 302 263 288 288 293 284 268
73 86 329 127 298 185 234 259 276 277 204 109 137 102 164 162 83 98 112 254 80 79 233 236 241 232 246 321 316 132 51 355 307 270 269 279 293 299 284 281 288 293 288 285
95 77 259 263 266 244 269 269 292 350 274 180 111 110 147 40 96 66 128 162 173 203 227 227 242 298 315 21 82 351 321 349 333 337 323 317 313 306 300 282 297 290 296 290
81 57 58 272 2 306 319 0 302 300 332 352 21 73 116 71 121 149 212 100 195 239 226 252 293 2 349 322 335 293 276 288 294 310 305 289 329 326 311 314 338 334 319 316
32 276 272 128 223 245 254 215 267 304 31 10 56 54 36 106 65 228 204 194 220 242 309 299 289 48 319 295 314 354 12 11 2 339 342 324 315 335 16 11 343 344 348 352